Location: Asheville, NC
(35.6000°N, 82.5500°W)
Time: 20:50:09
(UTC-04:00)

STARS - Pass Details

Date: 11 January 2018
Orbit: 626 x 640 km, 98.3° (Epoch: 22 June)

Event Time Altitude Azimuth Distance (km) Brightness Sun altitude
Rises 19:54:32 0° 348° (NNW) 2,928 ? -27.5°
Reaches altitude 10° 19:58:06 10° 317° (NW) 2,018 ? -28.2°
Maximum altitude 19:59:41 12° 295° (WNW) 1,896 ? -28.5°
Drops below altitude 10° 20:01:17 10° 274° (W) 2,017 ? -28.9°
Sets 20:04:52 0° 243° (WSW) 2,923 ? -29.6°
